Location: ???? ?????????
(31.1304°N, 31.7111°E)
Time: 02:54:50
(UTC+00:00)

CORIOLIS - Visible Passes

Search period start: 06 March 2021 00:00
Search period end: 16 March 2021 00:00
Orbit: 818 x 839 km, 98.7° (Epoch: 05 March)

Date Brightness Start Highest point End Pass type
(mag) Time Alt. Az. Time Alt. Az. Time Alt. Az.
06 Mar 7.2 16:49:27 10° SW 16:52:49 17° W 16:56:13 10° NW visible
07 Mar 6.4 03:31:31 10° NE 03:36:14 30° E 03:40:55 10° SSE visible
07 Mar 6.7 16:30:00 10° SSW 16:34:23 26° W 16:38:49 10° NW visible
08 Mar 7.2 03:13:58 10° NE 03:17:49 19° E 03:21:38 10° SE visible
09 Mar 7.5 02:57:14 10° ENE 02:59:21 12° E 03:01:28 10° ESE visible
11 Mar 7.4 16:59:01 10° WSW 17:01:35 14° W 17:04:10 10° WNW visible
12 Mar 6.1 03:39:59 10° NNE 03:44:58 36° E 03:49:56 10° SSE visible
12 Mar 7.0 16:39:08 10° SW 16:43:08 21° W 16:47:09 10° NW visible
13 Mar 6.9 03:22:15 10° NE 03:26:35 24° E 03:30:53 10° SSE visible
13 Mar 6.3 16:19:58 10° SSW 16:24:43 33° W 16:29:31 10° NW visible
14 Mar 7.3 03:05:01 10° ENE 03:08:08 15° E 03:11:15 10° SE visible
